GW3084 Weather Reports


Display with metric or nautical units.
time (UTC)temp
F
wind
direction
speed
MPH
gust
MPH
rain 1hr
in
rain 24hr
in
rain mn
in
humidity
%
barometer
mb
20260831023022 75 265 1.0 4.0 0.00 0.00 0.00 81 1013.8
20260831022020 75 249 2.0 9.0 0.00 0.00 0.00 80 1013.9
20260831021015 75 241 2.0 6.0 0.00 0.00 0.00 79 1013.9
20260831020034 76 250 2.0 7.0 0.00 0.00 0.00 79 1014.0
20260831015029 76 228 2.0 8.0 0.00 0.00 0.00 78 1013.9
20260831014026 76 256 2.0 6.0 0.00 0.00 0.00 77 1013.7
20260831013023 76 243 2.0 7.0 0.00 0.00 0.00 77 1013.5
20260831012019 77 254 1.0 6.0 0.00 0.00 0.00 76 1013.5
20260831011016 77 267 1.0 7.0 0.00 0.00 0.00 76 1013.5
20260831010033 77 256 1.0 4.0 0.00 0.00 0.00 75 1013.2
20260831005030 78 252 1.0 7.0 0.00 0.00 0.00 75 1013.2
20260831004027 78 255 1.0 3.0 0.00 0.00 0.00 74 1013.0
20260831003023 78 267 1.0 3.0 0.00 0.00 0.00 73 1012.8
20260831002020 79 249 1.0 6.0 0.00 0.00 0.00 73 1012.7
20260831001017 79 247 2.0 4.0 0.00 0.00 0.00 72 1012.8
20260831000054 80 244 2.0 9.0 0.00 0.00 0.00 71 1012.8
20260830235031 80 235 2.0 6.0 0.00 0.00 0.00 70 1012.8
20260830234027 81 240 3.0 8.0 0.00 0.00 0.00 69 1012.8
20260830233024 81 210 2.0 6.0 0.00 0.00 0.00 68 1012.8
20260830232021 82 230 3.0 9.0 0.00 0.00 0.00 66 1012.7
20260830231018 83 244 2.0 4.0 0.00 0.00 0.00 65 1012.6
20260830230035 83 239 2.0 7.0 0.00 0.00 0.00 64 1012.4
20260830225032 84 239 3.0 8.0 0.00 0.00 0.00 63 1012.4
20260830224048 85 204 2.0 7.0 0.00 0.00 0.00 61 1012.1
20260830223025 85 245 1.0 4.0 0.00 0.00 0.00 61 1012.0
20260830222042 85 275 3.0 8.0 0.00 0.00 0.00 60 1012.1
20260830221019 86 248 2.0 8.0 0.00 0.00 0.00 60 1012.2
20260830220016 86 265 3.0 7.0 0.00 0.00 0.00 58 1012.1
20260830215032 87 272 2.0 9.0 0.00 0.00 0.00 59 1012.0
20260830214029 87 258 2.0 7.0 0.00 0.00 0.00 59 1011.9
20260830213026 87 262 2.0 6.0 0.00 0.00 0.00 58 1011.9
20260830212143 88 267 2.0 4.0 0.00 0.00 0.00 56 1011.7
20260830211021 87 291 2.0 9.0 0.00 0.00 0.00 58 1011.7
20260830210016 86 268 3.0 10.0 0.00 0.00 0.00 59 1011.8
20260830205033 87 262 3.0 8.0 0.00 0.00 0.00 59 1011.9
20260830204030 86 277 3.0 10.0 0.00 0.00 0.00 59 1012.0
20260830203027 85 265 4.0 13.0 0.00 0.00 0.00 61 1012.1
20260830202023 85 283 3.0 9.0 0.00 0.00 0.00 62 1012.2
20260830201019 84 279 3.0 9.0 0.00 0.01 0.00 64 1012.2
20260830200038 78 267 3.0 13.0 0.00 0.01 0.00 74 1012.2
20260830195215 77 127 2.0 6.0 0.00 0.01 0.00 78 1012.3
20260830194029 77 142 3.0 7.0 0.00 0.01 0.00 78 1012.4
20260830193026 77 130 2.0 7.0 0.00 0.01 0.00 77 1012.5
20260830192022 78 133 2.0 7.0 0.00 0.02 0.00 77 1012.6
20260830191019 77 160 3.0 6.0 0.00 0.02 0.00 78 1012.4
20260830190016 78 167 2.0 8.0 0.00 0.02 0.00 76 1012.2
20260830185032 80 136 2.0 8.0 0.00 0.02 0.00 73 1012.2
20260830184029 80 192 3.0 8.0 0.00 0.03 0.00 74 1012.0
20260830183026 80 194 3.0 10.0 0.00 0.03 0.00 74 1012.1
20260830182023 79 185 5.0 13.0 0.00 0.03 0.00 75 1012.2
20260830181019 79 181 5.0 13.0 0.00 0.03 0.00 74 1012.1
20260830180016 80 177 4.0 11.0 0.00 0.04 0.00 72 1012.1
20260830175033 79 178 4.0 10.0 0.00 0.04 0.00 73 1012.2
20260830174030 79 177 4.0 10.0 0.00 0.04 0.00 73 1012.3
20260830173048 79 168 4.0 10.0 0.00 0.04 0.00 73 1012.4
20260830172024 78 177 4.0 10.0 0.00 0.04 0.00 75 1012.4
20260830171020 78 163 5.0 10.0 0.00 0.04 0.00 76 1012.5
20260830170017 77 179 4.0 11.0 0.00 0.04 0.00 76 1012.6
20260830165034 77 186 4.0 9.0 0.00 0.04 0.00 75 1012.8
20260830164030 77 168 3.0 11.0 0.00 0.04 0.00 75 1012.7
20260830163027 77 172 3.0 10.0 0.00 0.04 0.00 75 1012.9
20260830162024 77 185 3.0 8.0 0.00 0.04 0.00 75 1013.0
20260830161101 77 169 4.0 10.0 0.00 0.04 0.00 75 1013.0
20260830160018 77 172 4.0 11.0 0.00 0.04 0.00 76 1012.9
20260830155034 76 161 4.0 9.0 0.00 0.04 0.00 76 1013.0
20260830154032 77 171 3.0 10.0 0.00 0.04 0.00 75 1013.2
20260830153028 77 169 4.0 10.0 0.00 0.04 0.00 75 1013.3
20260830152027 76 191 4.0 10.0 0.00 0.04 0.00 78 1013.3
20260830151023 76 191 4.0 10.0 0.00 0.04 0.00 76 1013.4
20260830150039 78 181 4.0 10.0 0.00 0.04 0.00 72 1013.2
20260830145036 78 177 4.0 13.0 0.00 0.04 0.00 72 1013.1
20260830144033 78 173 3.0 10.0 0.00 0.04 0.00 72 1013.3
20260830143029 77 180 3.0 8.0 0.00 0.04 0.00 73 1013.2
20260830142046 77 182 4.0 9.0 0.00 0.04 0.00 73 1013.3
20260830141023 76 192 4.0 11.0 0.00 0.04 0.00 76 1013.2
20260830140020 75 183 5.0 11.0 0.00 0.04 0.00 76 1013.3
20260830135016 75 183 4.0 10.0 0.00 0.04 0.00 78 1013.3
20260830134053 73 176 4.0 9.0 0.00 0.04 0.00 81 1013.5
20260830133030 72 179 4.0 9.0 0.00 0.04 0.00 83 1013.6
20260830132026 71 180 3.0 13.0 0.00 0.04 0.00 86 1013.6
20260830131023 70 193 2.0 10.0 0.00 0.04 0.00 88 1013.8
20260830130019 70 181 3.0 10.0 0.00 0.04 0.00 89 1013.7
20260830125035 70 177 3.0 10.0 0.00 0.04 0.00 89 1013.6
20260830124033 70 171 3.0 8.0 0.00 0.04 0.00 88 1013.6
20260830123028 70 185 3.0 10.0 0.00 0.04 0.00 88 1013.6
20260830122025 70 189 3.0 7.0 0.00 0.04 0.00 87 1013.7
20260830121042 69 186 3.0 8.0 0.00 0.04 0.00 88 1013.6
20260830120038 69 173 2.0 7.0 0.00 0.04 0.00 89 1013.5
20260830115035 68 179 1.0 4.0 0.00 0.04 0.00 89 1013.5
20260830114031 68 180 1.0 3.0 0.00 0.04 0.00 90 1013.5
20260830113029 68 150 1.0 4.0 0.00 0.04 0.00 90 1013.5
20260830112025 68 155 1.0 3.0 0.00 0.04 0.00 90 1013.4
20260830111022 68 166 1.0 3.0 0.00 0.04 0.00 90 1013.5
20260830110020 68 158 1.0 6.0 0.00 0.04 0.00 91 1013.3
20260830105035 68 177 1.0 3.0 0.00 0.04 0.00 91 1013.2
20260830104032 68 172 1.0 6.0 0.00 0.04 0.00 90 1013.3
20260830103028 68 179 1.0 4.0 0.00 0.04 0.00 87 1013.3
20260830102025 69 158 1.0 3.0 0.00 0.04 0.00 86 1013.4
20260830101021 69 163 0.0 2.0 0.00 0.04 0.00 85 1013.3
20260830100019 70 148 0.0 1.0 0.00 0.04 0.00 84 1013.4
20260830095034 70 129 0.0 2.0 0.00 0.04 0.00 83 1013.5
20260830094053 71 208 0.0 1.0 0.00 0.04 0.00 83 1013.5
20260830093028 71 196 0.0 2.0 0.00 0.04 0.00 82 1013.5
20260830092046 71 181 1.0 2.0 0.00 0.04 0.00 82 1013.5
20260830091020 71 196 0.0 2.0 0.00 0.04 0.00 82 1013.5
20260830090018 71 177 1.0 6.0 0.00 0.04 0.00 82 1013.5
20260830085034 71 213 1.0 4.0 0.00 0.04 0.00 82 1013.5
20260830084051 71 179 1.0 3.0 0.00 0.04 0.00 82 1013.3
20260830083027 71 195 1.0 6.0 0.00 0.04 0.00 82 1013.5
20260830082025 72 174 2.0 7.0 0.00 0.04 0.00 82 1013.5
20260830081102 72 202 2.0 7.0 0.00 0.04 0.00 82 1013.5
20260830080019 72 198 3.0 8.0 0.00 0.04 0.00 81 1013.5
20260830075036 72 197 2.0 6.0 0.00 0.04 0.00 81 1013.5
20260830074031 72 192 3.0 8.0 0.00 0.04 0.00 81 1013.5
20260830073027 72 189 3.0 10.0 0.00 0.04 0.00 81 1013.6
20260830072044 72 179 3.0 10.0 0.00 0.04 0.00 81 1013.7
20260830071040 72 195 3.0 7.0 0.00 0.04 0.00 81 1013.9
20260830070017 72 185 3.0 8.0 0.00 0.04 0.00 81 1014.0
20260830065034 72 203 3.0 10.0 0.00 0.04 0.00 81 1014.2
20260830064030 72 181 2.0 7.0 0.00 0.04 0.00 82 1014.2
20260830063023 72 194 3.0 10.0 0.00 0.04 0.00 83 1014.4
20260830062018 72 192 3.0 8.0 0.00 0.04 0.00 84 1014.5
20260830061033 72 203 3.0 8.0 0.00 0.04 0.00 84 1014.6
20260830060026 72 187 3.0 9.0 0.00 0.04 0.00 85 1014.8
20260830055020 72 185 3.0 9.0 0.00 0.04 0.00 85 1014.9
20260830054015 72 198 2.0 7.0 0.00 0.04 0.00 86 1015.0
20260830053032 73 186 2.0 7.0 0.00 0.04 0.00 85 1015.2
20260830052029 73 192 2.0 9.0 0.00 0.04 0.00 85 1015.2
20260830051026 73 192 2.0 6.0 0.00 0.04 0.00 86 1015.2
20260830050022 72 190 2.0 6.0 0.00 0.04 0.00 86 1015.3
20260830045019 72 193 2.0 6.0 0.00 0.04 0.04 87 1015.4
20260830044016 72 181 2.0 9.0 0.00 0.04 0.04 87 1015.4
20260830043053 72 174 3.0 7.0 0.00 0.04 0.04 87 1015.5
20260830042051 72 189 2.0 7.0 0.00 0.04 0.04 86 1015.4
20260830041026 72 195 4.0 11.0 0.00 0.04 0.04 86 1015.5
20260830040023 72 187 2.0 6.0 0.00 0.04 0.04 87 1015.4
20260830035020 72 197 2.0 6.0 0.00 0.04 0.04 87 1015.4
20260830034016 72 182 3.0 11.0 0.00 0.04 0.04 87 1015.5
20260830033033 72 179 4.0 9.0 0.00 0.04 0.04 87 1015.5
20260830032030 72 197 3.0 10.0 0.00 0.04 0.04 89 1015.5
20260830031026 71 180 3.0 14.0 0.00 0.04 0.04 91 1015.6
20260830030023 71 187 4.0 14.0 0.00 0.04 0.04 91 1015.3
20260830025020 71 184 3.0 9.0 0.00 0.04 0.04 92 1015.3
20260830024017 71 183 3.0 9.0 0.00 0.04 0.04 93 1015.4